Location: Friaudour
(46.0460°N, 1.2873°E)
Time: 01:04:30
(UTC+00:00)

Daily predictions for brighter satellites

Satellite Brightness Start Highest point End
(mag) Time Altitude Azimuth Time Altitude Azimuth Time Altitude Azimuth
RESURS DK-1 4.2 00:00:00 10° WNW 00:02:33 20° W 00:02:33 20° W
CZ-4 R/B 4.1 00:04:10 10° NNE 00:08:51 55° E 00:09:36 49° SE
Cosmos 1269 Rocket 4.4 00:07:29 36° SW 00:09:24 57° WNW 00:14:37 10° NNE
Cosmos 1441 Rocket 3.1 00:10:43 81° ESE 00:10:45 81° E 00:14:43 10° NNE
Landsat 4 3.6 00:06:58 10° NNE 00:10:43 80° E 00:10:43 80° E
Lacrosse 5 1.7 00:10:39 54° SW 00:11:48 80° SE 00:16:55 10° NE
SL-16 R/B 4.2 00:12:25 10° ESE 00:17:34 28° ENE 00:22:43 10° N
BREEZE-M DEB (TANK) 3.8 00:07:55 10° WSW 00:19:12 71° SSE 00:23:01 10° E
Meteor 1-4 Rocket 3.3 00:17:40 10° N 00:21:14 43° ENE 00:21:27 42° E
Cosmos 1607 4.3 00:20:03 27° WSW 00:23:31 63° NW 00:29:50 10° NNE
Cosmos 1943 4.5 00:19:53 17° WSW 00:23:34 35° NW 00:28:45 10° NNE
Cosmos 1666 Rocket 3.5 00:23:50 64° SW 00:24:22 74° W 00:28:44 10° N
CZ-4C R/B 3.8 00:18:01 10° NW 00:24:33 34° WSW 00:26:33 30° SW
Iridium 4 Rocket 3.9 00:24:13 41° SSE 00:26:02 61° E 00:31:19 10° N
Meteor 2-20 Rocket 4.4 00:22:11 10° NNW 00:28:21 79° W 00:30:28 44° S
Helios 1B rocket 2.3 00:28:34 10° NNE 00:32:42 75° ESE 00:33:01 70° SSE
USA 267 3.4 00:32:12 40° S 00:34:03 50° SW 00:40:23 10° WNW
Helios 1A 4.1 00:38:50 29° W 00:38:50 29° W 00:42:26 10° NW
Cosmos 972 Rocket 4.3 00:37:38 10° NNW 00:43:29 60° WSW 00:44:50 46° SSW
SeaSat 1 4.3 00:40:33 10° ENE 00:43:46 17° ESE 00:45:02 16° ESE
Cosmos 1833 Rocket 4.4 00:44:54 17° SE 00:46:52 21° E 00:50:55 10° NE
CZ-2D R/B 3.5 00:42:18 10° NE 00:46:53 28° E 00:49:08 21° SE
Meteor 1-25 Rocket 4.2 00:47:42 44° S 00:49:32 76° E 00:55:07 10° NNE
Cosmos 1184 Rocket 3.4 00:49:58 48° ENE 00:49:58 48° ENE 00:52:49 10° NNE
Cosmos 1238 Rocket 3.4 00:50:04 48° SSW 00:51:30 76° W 00:56:06 10° N
COSMOS 2406 4.3 00:49:39 27° SE 00:51:32 34° ESE 00:56:40 10° NE
Cosmos 405 Rocket 3.6 00:52:44 35° ESE 00:53:09 36° E 00:56:39 10° NNE
Cosmos 1459 Rocket 4.4 00:52:49 30° SSE 00:55:34 52° E 01:01:31 10° NNE
Meteor 1-20 Rocket 4.1 00:58:23 44° SSW 01:00:17 86° W 01:06:00 10° N
Meteor 1-29 2.9 00:57:06 10° N 01:00:26 80° NW 01:00:26 80° NW
Cosmos 724 4.3 00:59:22 37° SW 01:01:46 76° NW 01:07:38 10° NNE
SL-24 DEB 4.3 00:57:15 10° N 01:02:01 79° E 01:03:20 48° S
Meteor 1-18 Rocket 4.2 01:04:23 10° N 01:10:16 88° E 01:12:51 35° S
CZ-4C R/B 4.1 01:11:32 30° ESE 01:12:57 45° ENE 01:16:28 10° N
Cosmos 1515 3.8 01:11:10 10° N 01:15:01 69° E 01:15:49 51° SE
Cosmos 1992 Rocket 4.5 01:10:44 10° NW 01:15:39 41° WSW 01:16:38 38° SW
GRACE-FO 1 4.4 01:13:02 10° N 01:16:41 87° E 01:17:02 71° S
GRACE-FO 2 4.4 01:13:25 10° N 01:17:04 87° E 01:17:25 71° S
Cosmos 1470 Rocket 4.2 01:16:51 38° WSW 01:17:53 44° WNW 01:22:12 10° N
Okean 1-7 3.0 01:13:58 10° N 01:18:25 82° E 01:19:45 44° SSE
Meteor 1-19 Rocket 4.1 01:19:00 10° NNW 01:24:40 80° W 01:27:06 35° S
ADEOS II 3.8 01:20:50 10° NE 01:25:05 24° E 01:28:37 13° SE
NPP 4.2 01:20:57 10° NNE 01:26:12 51° E 01:28:50 28° SSE
NOSS 2-1 (E) 4.5 01:22:13 10° NW 01:27:38 66° SW 01:34:17 14° SSE
Resurs 1-4 Rocket 2.3 01:24:36 10° NNE 01:29:55 65° ESE 01:32:21 32° S
ISS -1.9 01:27:18 10° WNW 01:30:25 33° N 01:33:30 10° ENE
Cosmos 2251 Rocket 4.5 01:32:39 24° WSW 01:35:05 37° WNW 01:39:58 10° N
UNK 3.7 01:33:05 32° SSE 01:35:12 86° ENE 01:39:52 10° NNW
Abrixas rocket 2.5 01:35:13 32° NW 01:36:15 54° N 01:39:06 10° E
ATLAS 5 CENTAUR R/B 3.7 01:36:11 10° NNW 01:41:22 39° NE 01:47:18 10° ESE
Gbstr 26 Del rocket 3.6 01:39:10 10° WNW 01:43:09 57° NNE 01:47:52 10° E
Cosmos 2061 Rocket 4.0 01:41:58 28° S 01:45:36 85° E 01:51:56 10° N
Cosmos 2173 Rocket 4.1 01:43:03 30° SSW 01:46:17 67° W 01:52:36 10° N
Cosmos 2369 4.1 01:41:27 10° NNW 01:47:10 64° ENE 01:52:51 10° SE
Cosmos 1980 Rocket 3.5 01:42:27 10° NNW 01:47:51 41° NE 01:53:11 10° SE
SL-8 R/B 3.6 01:46:36 29° WSW 01:49:05 84° SSE 01:53:55 10° ENE
Lacrosse 5 3.4 01:50:37 10° W 01:55:13 33° NNW 01:59:49 10° NE
Okean 3 3.4 01:52:22 10° N 01:56:36 84° E 01:58:48 27° SSE
Cosmos 2016 Rocket 3.9 01:53:41 27° SSW 01:57:13 80° W 02:03:29 10° N
Meteor 1-5 Rocket 4.2 01:55:49 27° S 01:59:04 88° ESE 02:04:58 10° NNE
SL-16 R/B 2.6 01:57:01 24° S 02:00:45 59° WSW 02:06:58 10° NNW
BREEZE-M DEB (TANK) 2.9 01:58:56 14° WNW 02:01:11 63° SSW 02:09:02 10° ESE
Meteor 2-4 Rocket 3.9 01:59:05 10° NNW 02:04:56 62° W 02:08:32 24° S
Cosmos 1536 3.3 02:02:53 24° SSE 02:05:06 55° E 02:09:05 10° NNE
Cosmos 1864 Rocket 4.4 02:02:20 25° SSW 02:06:07 81° W 02:12:17 10° N
Cosmos 1869 Rocket 3.9 02:04:43 31° SW 02:06:22 48° WNW 02:10:36 10° N
Cosmos 2278 4.2 02:01:55 10° NNW 02:07:37 63° ENE 02:13:17 10° SE
Meteor 1-11 Rocket 3.8 02:04:11 22° S 02:07:49 72° E 02:13:20 10° NNE
Cosmos 1190 Rocket 4.1 02:06:38 28° SW 02:09:24 70° WNW 02:14:40 10° NNE
Cosmos 1954 Rocket 4.1 02:08:19 25° S 02:11:25 75° ESE 02:16:45 10° NNE
Cosmos 1437 Rocket 3.3 02:08:21 10° NNW 02:12:10 41° W 02:13:22 32° SW
Cosmos 921 Rocket 3.3 02:08:15 10° NNW 02:12:40 69° ENE 02:16:58 10° SSE
Cosmos 1697 Rocket 2.6 02:10:31 10° NNW 02:16:09 74° WSW 02:21:43 10° SSE
Cosmos 2221 Rocket 3.5 02:12:20 10° NNW 02:16:45 71° W 02:19:26 23° S
NOSS 7 (D) 3.9 02:16:52 10° NW 02:19:41 61° SW 02:21:20 23° SSE
SeaSat 1 2.5 02:16:47 10° NNE 02:21:44 73° WNW 02:24:48 23° SW
CZ-4B R/B 3.5 02:20:59 10° N 02:26:02 69° WNW 02:29:11 22° SSW
IRS-1D 3.4 02:21:09 10° NNE 02:26:08 85° WNW 02:29:29 21° SSW
Cosmos 2082 Rocket 2.3 02:22:31 21° SSW 02:26:26 76° ESE 02:32:09 10° NNE
CZ-2D R/B 2.7 02:22:02 10° N 02:27:05 44° WNW 02:30:27 20° SW
COBE Rocket 3.9 02:23:53 12° SSE 02:28:38 86° WSW 02:33:33 10° NNW
Aureole 1 Rocket 3.7 02:26:02 24° SW 02:28:51 64° WNW 02:34:55 10° NNE
Cosmos 1763 Rocket 4.4 02:24:32 10° NNW 02:29:40 51° ENE 02:34:49 10° SE
Cosmos 1833 Rocket 2.8 02:26:35 22° SW 02:30:15 65° WNW 02:35:52 10° NNE
Cosmos 1900 4.3 02:29:33 22° SSW 02:32:41 80° ESE 02:37:41 10° NE
Meteor 1-23 Rocket 4.3 02:27:48 10° N 02:33:35 84° E 02:39:22 10° SSE
NOSS 2 (F) 4.5 02:30:40 10° NW 02:33:48 80° SW 02:36:55 10° SE
ERS-2 4.5 02:31:37 10° ESE 02:34:36 24° ENE 02:37:36 10° N
Cosmos 1140 Rocket 4.1 02:32:12 20° SW 02:35:31 45° WNW 02:40:35 10° N
Meteor 1-28 Rocket 3.8 02:32:06 10° SSE 02:35:43 57° ENE 02:39:25 10° N
COSMOS 2406 4.0 02:31:43 18° WSW 02:35:44 43° NW 02:41:13 10° NNE
CBERS-1 4.1 02:34:09 10° N 02:39:17 68° WNW 02:43:03 18° SSW
Cosmos 468 Rocket 4.3 02:35:38 10° NNW 02:40:58 72° ENE 02:46:16 10° SSE
Cosmos 2360 4.3 02:37:13 10° NNW 02:42:53 61° WSW 02:48:29 10° S
Cosmos 2233 Rocket 4.1 02:39:39 17° SSW 02:44:33 67° W 02:50:49 10° N
Cosmos 1271 Rocket 4.4 02:42:57 10° N 02:46:24 33° ENE 02:49:49 10° SE
Cosmos 1674 Rocket 3.5 02:43:37 10° NNW 02:47:58 73° W 02:52:16 10° S
Cosmos 192 4.5 02:44:31 10° NNW 02:49:18 53° WSW 02:54:03 10° S
Cosmos 1666 3.5 02:48:03 20° SW 02:50:09 36° WNW 02:53:40 10° N
ATLAS 5 CENTAUR R/B 3.7 02:47:14 10° WNW 02:51:23 43° SW 03:04:41 10° SSE
Cosmos 1850 Rocket 4.3 02:46:38 13° S 02:51:23 68° ESE 02:56:43 10° NNE
Cosmos 2322 Rocket 4.1 02:46:20 10° NNW 02:51:28 34° NE 02:56:35 10° ESE
Cosmos 1066 Rocket 4.3 02:49:27 10° NNW 02:55:17 66° W 03:01:03 10° S
ARIANE 5 R/B 2.5 02:53:16 10° NNE 02:58:24 87° ESE 03:03:30 10° SSW
IRS-1C 4.2 02:53:59 10° N 02:59:19 72° WNW 03:04:12 12° SSW
Cosmos 1544 3.9 03:00:45 10° S 03:04:12 48° E 03:07:41 10° NNE
ADEOS II 2.5 02:59:58 10° N 03:05:02 49° WNW 03:09:33 13° SW
Cosmos 1743 2.6 03:02:34 12° SSW 03:06:04 80° W 03:09:55 10° N
Cosmos 1818 3.6 03:00:39 10° NW 03:06:08 89° WSW 03:11:35 10° SSE
SL-08 R/B 3.5 03:02:06 10° S 03:06:45 54° W 03:11:31 10° NNW
ISS -3.8 03:04:05 10° WNW 03:07:28 89° SSW 03:10:50 10° ESE
Resurs 1-4 Rocket 3.8 03:05:24 10° NNW 03:09:15 21° WNW 03:13:03 10° WSW
Cosmos 1741 Rocket 4.0 03:04:18 11° SSW 03:09:15 89° ESE 03:14:31 10° NNE
Cosmos 1733 Rocket 4.0 03:06:39 14° SW 03:09:47 33° WNW 03:13:43 10° N
Cosmos 1908 Rocket 3.6 03:06:03 10° S 03:10:31 83° W 03:15:02 10° N
Spot 4 Rocket 4.1 03:05:22 10° NNE 03:10:34 81° ESE 03:15:43 10° SSW
Abrixas rocket 2.0 03:08:53 10° WNW 03:11:41 48° SSW 03:14:29 10° SE
Landsat 5 3.8 03:09:33 10° SSE 03:13:23 61° ENE 03:17:12 10° N
CENTAUR R/B 4.1 03:10:43 10° SSE 03:15:35 28° ESE 03:21:05 10° NE
Cosmos 1242 Rocket 2.8 03:18:35 10° NNW 03:21:55 45° W 03:25:15 10° S
Cosmos 2360 Rocket 4.3 03:18:31 10° NNW 03:23:39 33° NE 03:28:45 10° ESE
ATLAS 5 CENTAUR R/B 2.6 03:20:39 10° NW 03:26:16 53° WSW 03:32:43 10° SSE
Gbstr 26 Del rocket 3.6 03:25:50 10° WNW 03:30:00 42° SW 03:35:01 10° SSE
Cosmos 1980 Rocket 2.8 03:26:39 10° NW 03:31:46 35° WSW 03:36:50 10° S
Cosmos 1378 3.9 03:28:22 10° NNW 03:31:48 34° W 03:35:12 10° SSW
SL-8 R/B 4.1 03:27:01 10° W 03:31:49 65° N 03:36:36 10° E
Cosmos 1975 Rocket 3.1 03:34:52 10° N 03:39:19 80° W 03:43:46 10° S
Lacrosse 5 4.1 03:35:21 10° NW 03:39:26 24° N 03:43:31 10° NE
IDEFIX/ARIANE 42P 2.7 03:35:28 10° N 03:40:37 66° WNW 03:45:45 10° SSW
BREEZE-M TANK 2.6 03:37:48 10° W 03:40:50 82° S 03:47:21 10° E
PSLV R/B 4.2 03:41:21 10° NNE 03:45:38 59° E 03:49:55 10° S
H-2A R/B 2.3 03:41:52 10° S 03:46:07 49° W 03:50:19 10° NNW
